Falls City, NE

3:20 AM CDT on April 21, 2018 (GMT -0500)
Brenner

Weather History for KFNB - June, 2013

Change the Weather History Date:

Monday, June 24, 2013

  Actual Average Record
Temperature  
Mean Temperature 78 °F -  
Max Temperature 84 °F 86 °F 103 °F (1988)
Min Temperature 71 °F 63 °F 49 °F (1961)
Cooling Degree Days 12    
Growing Degree Days 28 (Base 50)    
Moisture  
Dew Point 70 °F    
Average Humidity 80    
Maximum Humidity 100    
Minimum Humidity 60    
Precipitation  
Precipitation 0.27 in - - ()
Sea Level Pressure  
Sea Level Pressure 29.84 in    
Wind  
Wind Speed 10 mph (SSE)    
Max Wind Speed 22 mph    
Max Gust Speed 33 mph    
Visibility 9 miles    
Events Rain , Thunderstorm    
Averages and records for this station are not official NWS values.
T = Trace of Precipitation, MM = Missing Value Source: NWS Daily Summary

Daily Weather History Graph

Daily Weather History Graph

Search for Another Location

Airport or City:

Astronomy

Jun. 24, 2013 Rise Set
Actual Time 5:54 AM CDT 8:55 PM CDT
Civil Twilight 5:21 AM CDT 9:28 PM CDT
Nautical Twilight 4:39 AM CDT 10:10 PM CDT
Astronomical Twilight 3:50 AM CDT 10:58 PM CDT
Moon 9:58 PM CDT (6/24) 7:23 AM CDT (6/24)
Length of Visible Light 16h 06m
Length of Day
15h 01m
Full, 98% of the Moon is Illuminated
Jun 24
Full
Jun 29
Last Quarter
Jul 8
New
Jul 15
First Quarter
Jul 22
Full

Hourly Weather History & Observations

Time (CDT) Temp. Heat Index Dew Point Humidity Pressure Visibility Wind Dir Wind Speed Gust Speed Precip Events Conditions
12:53 AM 78.1 °F - 70.0 °F 76% 29.84 in 10.0 mi South 10.4 mph - N/A   Clear
1:53 AM 78.1 °F - 69.1 °F 74% 29.83 in 10.0 mi South 16.1 mph 21.9 mph N/A   Clear
2:53 AM 78.1 °F - 69.1 °F 74% 29.83 in 10.0 mi South 11.5 mph 20.7 mph N/A   Clear
3:53 AM 77.0 °F - 69.1 °F 76% 29.84 in 10.0 mi South 9.2 mph - N/A   Overcast
4:53 AM 75.0 °F - 69.1 °F 82% 29.85 in 10.0 mi ESE 4.6 mph - N/A   Overcast
5:21 AM 75.2 °F - 69.8 °F 83% 29.88 in 10.0 mi SE 4.6 mph - N/A Thunderstorm Overcast
5:36 AM 75.2 °F - 69.8 °F 83% 29.88 in 10.0 mi SE 5.8 mph - N/A   Mostly Cloudy
5:53 AM 73.9 °F - 69.1 °F 85% 29.86 in 10.0 mi ESE 5.8 mph - N/A   Mostly Cloudy
6:53 AM 73.9 °F - 70.0 °F 87% 29.86 in 10.0 mi SE 4.6 mph - N/A   Overcast
7:53 AM 77.0 °F - 69.1 °F 76% 29.84 in 10.0 mi South 12.7 mph - N/A   Scattered Clouds
8:53 AM 80.1 °F 83.6 °F 71.1 °F 74% 29.84 in 10.0 mi South 15.0 mph 21.9 mph N/A   Scattered Clouds
9:53 AM 79.0 °F - 71.1 °F 77% 29.89 in 10.0 mi WSW 12.7 mph 20.7 mph N/A   Mostly Cloudy
10:21 AM 78.8 °F - 71.6 °F 78% 29.94 in 10.0 mi WSW 5.8 mph - 0.00 in Rain , Thunderstorm Light Thunderstorms and Rain
10:53 AM 75.0 °F - 72.0 °F 90% 29.94 in 9.0 mi SSW 6.9 mph - 0.08 in Rain , Thunderstorm Light Thunderstorms and Rain
11:10 AM 73.4 °F - 73.4 °F 100% 29.97 in 1.8 mi SW 4.6 mph - 0.07 in Rain , Thunderstorm Heavy Thunderstorms and Rain
11:16 AM 73.4 °F - 73.4 °F 100% 29.98 in 3.0 mi SW 5.8 mph - 0.08 in Rain , Thunderstorm Thunderstorms and Rain
11:53 AM 73.0 °F - 73.0 °F 100% 29.93 in 5.0 mi SSE 10.4 mph - 0.12 in Rain , Thunderstorm Light Thunderstorms and Rain
12:29 PM 73.4 °F - 71.6 °F 94% 29.92 in 8.0 mi South 12.7 mph - 0.03 in Rain Light Rain
12:42 PM 73.4 °F - 71.6 °F 94% 29.89 in 7.0 mi SSE 19.6 mph - 0.04 in Rain , Thunderstorm Light Rain
12:53 PM 72.0 °F - 71.1 °F 97% 29.80 in 5.0 mi SE 17.3 mph 26.5 mph 0.06 in Rain , Thunderstorm Light Thunderstorms and Rain
1:13 PM 71.6 °F - 71.6 °F 100% 29.78 in 10.0 mi ESE 13.8 mph 31.1 mph 0.01 in Rain Light Rain
1:53 PM 75.9 °F - 69.1 °F 79% 29.81 in 10.0 mi SSE 9.2 mph 17.3 mph 0.01 in   Clear
2:53 PM 80.1 °F 83.8 °F 72.0 °F 76% 29.83 in 10.0 mi ESE 6.9 mph - N/A   Clear
3:53 PM 81.0 °F 84.9 °F 71.1 °F 72% 29.82 in 10.0 mi SSE 12.7 mph - N/A   Clear
4:53 PM 82.0 °F 85.9 °F 70.0 °F 67% 29.70 in 10.0 mi SSE 17.3 mph 33.4 mph N/A   Clear
5:53 PM 84.0 °F 89.0 °F 71.1 °F 65% 29.73 in 10.0 mi South 21.9 mph 29.9 mph N/A   Clear
6:53 PM 84.0 °F 88.4 °F 70.0 °F 63% 29.74 in 10.0 mi South 13.8 mph 21.9 mph N/A   Clear
7:53 PM 82.9 °F 85.8 °F 68.0 °F 60% 29.74 in 10.0 mi South 10.4 mph - N/A   Clear
8:53 PM 77.0 °F - 68.0 °F 74% 29.76 in 10.0 mi ESE 6.9 mph - N/A   Clear
9:53 PM 80.1 °F 82.3 °F 66.9 °F 64% 29.78 in 10.0 mi South 11.5 mph - N/A   Clear
10:53 PM 79.0 °F - 66.0 °F 64% 29.80 in 10.0 mi SSE 6.9 mph - N/A   Clear
11:53 PM 80.1 °F 82.3 °F 66.9 °F 64% 29.76 in 10.0 mi South 13.8 mph 20.7 mph N/A   Clear